{"data":{"norad_id":48643,"intl_designator":"2021-044F","name":"STARLINK-2704","alt_names":[],"object_type":"PAYLOAD","status":"ACTIVE","operator":null,"country":"US","launch_date":"2021-05-26","launch_site_code":"AFETR","launch_vehicle":null,"mission":null,"orbit_class":"UNKNOWN","rcs_meters":null,"size_class":null,"mass_kg":null,"dimensions":null,"purposes":["comms"],"wikipedia_slug":null,"has_3d_model":false,"image_url":null,"decayed_at":null,"tle_current":{"epoch":"2026-05-25T02:19:37.763904Z","epoch_age_seconds":80750,"freshness":"FRESH","line1":"1 48643U 21044F   26145.09696486  .00001534  00000+0  61187-4 0  9991","line2":"2 48643  53.1603 118.5010 0001506  98.8194 261.2978 15.31700236275537","mean_motion":15.31700236,"eccentricity":0.0001506,"inclination_deg":53.1603,"raan_deg":118.501,"arg_perigee_deg":98.8194,"mean_anomaly_deg":261.2978,"bstar":6.1187e-5,"rev_number":27553,"period_min":94.013173475805,"perigee_km":469.70785095248,"apogee_km":471.77073249155,"semimajor_km":6848.876291722,"source":"CELESTRAK","updated_at":"2026-05-25T13:38:16.753855Z"}}}